Terminal Aerodrome Forecast
Issued by NWS

Home | Current Version | Previous Version | Text Only | Print | Product List | Glossary On
Versions: 1 2 3 4 5 6 7 8 9 10 11 12 13 14 15 16
000
FTPA31 PHFO 032349
TAFHNY
TAF
PHNY 032349Z 0400/0424 05015KT P6SM SCT025 BKN035
      TEMPO 0400/0404 BKN025
     FM040500 05010KT P6SM FEW025 SCT035=

USA.gov is the U.S. government's official web portal to all federal, state and local government web resources and services.